Flag for United Kingdom Weather past 2 weeks in Birmingham, England, United Kingdom

Now
45 °F

Passing clouds.


Feels Like: 41 °F
Forecast: 41 / 52 °F
Wind: 7 mph from Southwest

Location: Birmingham / Airport

Current Time: Mar 6, 2015 at 12:30:53 AM

Latest Report: Mar 5, 2015 at 11:50 PM


Visibility: N/A

Pressure: 30.57 "Hg

Humidity: 66%

Dew point: 34 °F

Location of BirminghamLocation

Historic Weather in Birmingham — Graph

°F

Birmingham temperature yesterday

Maximum temperature yesterday: 48 °F (at 2:20 PM)
Minimum temperature yesterday: 32 °F (at 3:20 AM)
Average temperature yesterday: 43 °F

Past Weeks' High & Low Weather Summary

 TemperatureHumidityPressure
High52 °F (Feb 25, 1:20 PM)100% (Feb 22, 7:20 PM)30.66 "Hg (Feb 22, 7:20 PM)
Low32 °F (Feb 21, 11:20 PM)39% (Mar 2, 2:50 PM)29.12 "Hg (Feb 23, 5:20 PM)
Average42 °F77%29.80 "Hg
* Reported Feb 18 11:20 PM — Mar 5 11:20 PM, Birmingham, Weather by CustomWeather, © 2015

Note: Actual official high and low records may vary slightly from our data, if they occured in-between our weather recording intervals... More about our weather records

Advertising

Birmingham weather history for previous 24 hours

 ConditionsComfort  
Time TempWeatherWind HumidityBarometerVisibility
11:20 PM
Thu, Mar 5
45 °FOvercast.7 mph71%30.57 "HgN/A
10:50 PM46 °FPassing clouds.8 mph66%30.57 "HgN/A
10:20 PM46 °FPassing clouds.8 mph66%30.57 "HgN/A
9:50 PM46 °FPassing clouds.9 mph66%30.60 "HgN/A
9:20 PM46 °FOvercast.10 mph66%30.60 "HgN/A
8:20 PM46 °FPassing clouds.5 mph66%30.60 "HgN/A
7:50 PM46 °FPassing clouds.7 mph66%30.60 "HgN/A
7:20 PM46 °FPassing clouds.5 mph66%30.60 "HgN/A
6:50 PM46 °FPassing clouds.5 mph66%30.57 "HgN/A
6:20 PM46 °FPassing clouds.5 mph66%30.57 "HgN/A
5:50 PM46 °FPartly sunny.7 mph66%30.60 "HgN/A
5:20 PM46 °FPartly sunny.8 mph66%30.60 "HgN/A
4:50 PM48 °FPartly sunny.7 mph62%30.60 "HgN/A
4:20 PM48 °FPartly sunny.9 mph66%30.60 "HgN/A
3:50 PM48 °FBroken clouds.9 mph66%30.60 "HgN/A
3:20 PM48 °FPartly sunny.10 mph66%30.60 "HgN/A
2:50 PM48 °FPartly sunny.10 mph62%30.60 "HgN/A
2:20 PM48 °FPartly sunny.10 mph62%30.60 "HgN/A
1:50 PM46 °FMostly cloudy.10 mph66%30.63 "HgN/A
1:20 PM46 °FMostly cloudy.8 mph71%30.63 "HgN/A
12:50 PM46 °FMore clouds than sun.8 mph71%30.63 "HgN/A
12:20 PM46 °FMore clouds than sun.8 mph76%30.63 "HgN/A
11:50 AM45 °FCloudy.9 mph81%30.63 "HgN/A
11:20 AM46 °FPartly sunny.9 mph71%30.63 "HgN/A
10:50 AM45 °FPartly sunny.10 mph76%30.63 "HgN/A
10:20 AM43 °FPartly sunny.7 mph81%30.66 "HgN/A
9:50 AM41 °FPartly sunny.7 mph81%30.66 "HgN/A
9:20 AM41 °FPartly sunny.9 mph81%30.66 "HgN/A
8:50 AM39 °FPartly sunny.7 mph81%30.66 "HgN/A
8:20 AM37 °FPartly sunny.6 mph87%30.66 "HgN/A
7:50 AM37 °FPassing clouds.7 mph81%30.66 "HgN/A
7:20 AM36 °FSunny.7 mph87%30.66 "Hg10 mi
6:50 AM36 °FSunny.7 mph81%30.66 "Hg10 mi
6:20 AM36 °FClear.8 mph87%30.66 "Hg10 mi
5:50 AM36 °FClear.8 mph87%30.66 "Hg10 mi
5:20 AM36 °FClear.7 mph87%30.66 "Hg10 mi
4:50 AM32 °FClear.3 mph93%30.66 "Hg10 mi
4:20 AM36 °FClear.3 mph87%30.66 "Hg10 mi
3:20 AM32 °FClear.5 mph87%30.66 "Hg10 mi
2:50 AM37 °FPassing clouds.5 mph81%30.66 "HgN/A
1:50 AM37 °FChilly.3 mph75%30.66 "HgN/A
1:20 AM39 °FChilly.5 mph70%30.66 "HgN/A
12:50 AM37 °FChilly.5 mph75%30.66 "HgN/A
12:20 AM37 °FPassing clouds.7 mph75%30.66 "HgN/A
Weather by CustomWeather, © 2015

See weather overviewHow to use our weather pages